Home > Weather > Göttingen > Past weeks

Flag for Germany Weather for the Past 2 Weeks in Göttingen, Lower Saxony, Germany

Now
46 °F

Passing clouds.


Feels Like: 42 °F
Forecast: 43 / 49 °F
Wind: 8 mph from Southwest

Location: Fritzlar Airport

Current Time: Feb 7, 2016 at 2:58:47 AM

Latest Report: Feb 7, 2016 at 1:20 AM


Visibility: N/A

Pressure: 29.68 "Hg

Humidity: 66%

Dew point: 36 °F

Location of GöttingenLocation

Historic Weather in Göttingen — Graph

°F

Göttingen Temperature Yesterday

Maximum temperature yesterday: 52 °F (at 2:20 PM)
Minimum temperature yesterday: 41 °F (at 10:20 PM)
Average temperature yesterday: 46 °F

High & Low Weather Summary for the Past Weeks

 TemperatureHumidityPressure
High54 °F (Feb 1, 10:20 AM)100% (Jan 24, 3:20 AM)30.57 "Hg (Jan 24, 3:20 AM)
Low27 °F (Jan 23, 12:20 AM)50% (Jan 28, 2:20 PM)29.68 "Hg (Feb 7, 12:20 AM)
Average42 °F84%30.12 "Hg
* Reported Jan 23 12:20 AM — Feb 7 12:20 AM, Göttingen, Weather by CustomWeather, © 2016

Note: Actual official high and low records may vary slightly from our data, if they occured in-between our weather recording intervals... More about our weather records

Advertising

Göttingen Weather History for the Previous 24 Hours

 ConditionsComfort  
Time TempWeatherWind HumidityBarometerVisibility
12:20 AM
Sun, Feb 7
46 °FPassing clouds.3 mph66%29.68 "HgN/A
11:20 PM
Sat, Feb 6
46 °FCool.3 mph66%29.71 "HgN/A
10:20 PM41 °FPassing clouds.7 mph81%29.74 "HgN/A
9:20 PM43 °FPassing clouds.1 mph81%29.74 "HgN/A
8:20 PM43 °FPassing clouds.8 mph81%29.77 "HgN/A
7:20 PM43 °FQuite cool.2 mph81%29.80 "HgN/A
6:20 PM45 °FPassing clouds.3 mph76%29.80 "HgN/A
5:20 PM50 °FScattered clouds.12 mph67%29.83 "HgN/A
4:20 PM50 °FScattered clouds.15 mph71%29.83 "HgN/A
3:20 PM52 °FPartly sunny.21 mph67%29.86 "HgN/A
2:20 PM52 °FPartly sunny.17 mph67%29.86 "HgN/A
1:20 PM50 °FPartly sunny.18 mph71%29.89 "HgN/A
12:20 PM48 °FBroken clouds.23 mph76%29.92 "HgN/A
11:20 AM46 °FBroken clouds.22 mph76%29.95 "HgN/A
10:20 AM46 °FBroken clouds.16 mph82%29.95 "HgN/A
9:20 AM43 °FPartly sunny.9 mph87%29.98 "HgN/A
8:20 AM45 °FPartly sunny.8 mph81%30.01 "HgN/A
7:20 AM46 °FPassing clouds.7 mph82%30.01 "HgN/A
6:20 AM45 °FPassing clouds.5 mph87%30.04 "HgN/A
5:20 AM46 °FPassing clouds.7 mph82%30.04 "HgN/A
4:20 AM46 °FPassing clouds.8 mph82%30.07 "HgN/A
3:20 AM46 °FPassing clouds.10 mph82%30.07 "HgN/A
2:20 AM46 °FOvercast.9 mph82%30.09 "HgN/A
Weather by CustomWeather, © 2016

See weather overviewHow to use our weather pages